| time (UTC) | temp F | wind direction | speed MPH | gust MPH | rain 1hr in | rain 24hr in | rain mn in | humidity % | barometer mb |
| 20260906012820 | 79 | 306 | 0.0 | 0.0 | 0.00 | 0.00 | 0.00 | 81 | 1046.1 |
| 20260906012320 | 79 | 306 | 0.0 | 0.0 | 0.00 | 0.00 | 0.00 | 81 | 1046.1 |
| 20260906011815 | 79 | 306 | 0.0 | 0.0 | 0.00 | 0.00 | 0.00 | 82 | 1046.0 |
| 20260906011315 | 79 | 306 | 0.0 | 0.0 | 0.00 | 0.00 | 0.00 | 82 | 1045.9 |
| 20260906010811 | 80 | 306 | 0.0 | 1.0 | 0.00 | 0.00 | 0.00 | 82 | 1045.7 |
| 20260906010308 | 80 | 306 | 0.0 | 0.0 | 0.00 | 0.00 | 0.00 | 81 | 1045.8 |
| 20260906005802 | 80 | 306 | 0.0 | 1.0 | 0.00 | 0.00 | 0.00 | 81 | 1045.6 |
| 20260906005301 | 80 | 305 | 0.0 | 0.0 | 0.00 | 0.00 | 0.00 | 82 | 1045.4 |
| 20260906004800 | 80 | 305 | 0.0 | 0.0 | 0.00 | 0.00 | 0.00 | 82 | 1045.8 |
| 20260906004255 | 80 | 305 | 0.0 | 0.0 | 0.00 | 0.00 | 0.00 | 81 | 1045.5 |
| 20260906003755 | 81 | 305 | 0.0 | 0.0 | 0.00 | 0.00 | 0.00 | 78 | 1045.5 |
| 20260906003251 | 81 | 305 | 0.0 | 0.0 | 0.00 | 0.00 | 0.00 | 81 | 1045.4 |
| 20260906002747 | 81 | 305 | 0.0 | 0.0 | 0.00 | 0.00 | 0.00 | 81 | 1045.3 |
| 20260906002246 | 82 | 305 | 0.0 | 0.0 | 0.00 | 0.00 | 0.00 | 80 | 1045.4 |
| 20260906001742 | 82 | 305 | 0.0 | 0.0 | 0.00 | 0.00 | 0.00 | 80 | 1045.6 |
| 20260906001237 | 83 | 305 | 0.0 | 0.0 | 0.00 | 0.00 | 0.00 | 79 | 1045.6 |
| 20260906000732 | 83 | 305 | 0.0 | 0.0 | 0.00 | 0.00 | 0.00 | 78 | 1045.8 |
| 20260906000234 | 84 | 305 | 0.0 | 0.0 | 0.00 | 0.00 | 0.00 | 76 | 1045.6 |
| 20260905235727 | 85 | 305 | 0.0 | 0.0 | 0.00 | 0.00 | 0.00 | 75 | 1045.8 |
| 20260905235227 | 85 | 305 | 0.0 | 0.0 | 0.00 | 0.00 | 0.00 | 74 | 1045.8 |
| 20260905234723 | 86 | 305 | 0.0 | 0.0 | 0.00 | 0.00 | 0.00 | 71 | 1046.1 |
| 20260905234218 | 87 | 305 | 0.0 | 0.0 | 0.00 | 0.00 | 0.00 | 70 | 1046.0 |
| 20260905233713 | 87 | 305 | 0.0 | 0.0 | 0.00 | 0.00 | 0.00 | 70 | 1046.0 |
| 20260905233212 | 88 | 305 | 0.0 | 0.0 | 0.00 | 0.00 | 0.00 | 69 | 1046.1 |
| 20260905232707 | 89 | 305 | 0.0 | 0.0 | 0.00 | 0.00 | 0.00 | 66 | 1046.1 |
| 20260905232203 | 90 | 305 | 0.0 | 0.0 | 0.00 | 0.00 | 0.00 | 62 | 1046.0 |
| 20260905231658 | 90 | 305 | 0.0 | 0.0 | 0.00 | 0.00 | 0.00 | 60 | 1046.3 |
| 20260905231154 | 90 | 305 | 0.0 | 0.0 | 0.00 | 0.00 | 0.00 | 60 | 1046.3 |
| 20260905230650 | 90 | 305 | 0.0 | 0.0 | 0.00 | 0.00 | 0.00 | 59 | 1046.2 |
| 20260905230148 | 91 | 305 | 0.0 | 0.0 | 0.00 | 0.00 | 0.00 | 57 | 1046.0 |
| 20260905225647 | 92 | 305 | 0.0 | 0.0 | 0.00 | 0.00 | 0.00 | 54 | 1046.0 |
| 20260905225142 | 94 | 305 | 0.0 | 0.0 | 0.00 | 0.00 | 0.00 | 55 | 1046.1 |
| 20260905224641 | 94 | 305 | 0.0 | 0.0 | 0.00 | 0.00 | 0.00 | 53 | 1046.1 |
| 20260905224136 | 95 | 305 | 0.0 | 0.0 | 0.00 | 0.00 | 0.00 | 50 | 1046.1 |
| 20260905223633 | 96 | 305 | 0.0 | 0.0 | 0.00 | 0.00 | 0.00 | 49 | 1045.9 |
| 20260905223129 | 97 | 305 | 0.0 | 0.0 | 0.00 | 0.00 | 0.00 | 48 | 1046.2 |
| 20260905222625 | 97 | 307 | 0.0 | 0.0 | 0.00 | 0.00 | 0.00 | 46 | 1046.1 |
| 20260905222119 | 97 | 307 | 0.0 | 0.0 | 0.00 | 0.00 | 0.00 | 47 | 1046.1 |
| 20260905221615 | 97 | 307 | 0.0 | 0.0 | 0.00 | 0.00 | 0.00 | 47 | 1046.3 |
| 20260905221112 | 97 | 307 | 0.0 | 1.0 | 0.00 | 0.00 | 0.00 | 47 | 1046.0 |
| 20260905220607 | 99 | 260 | 1.0 | 3.0 | 0.00 | 0.00 | 0.00 | 43 | 1045.9 |
| 20260905220103 | 99 | 73 | 0.0 | 0.0 | 0.00 | 0.00 | 0.00 | 44 | 1046.1 |
| 20260905215602 | 99 | 74 | 0.0 | 0.0 | 0.00 | 0.00 | 0.00 | 45 | 1046.0 |
| 20260905215058 | 99 | 108 | 0.0 | 0.0 | 0.00 | 0.00 | 0.00 | 43 | 1045.8 |
| 20260905214555 | 99 | 110 | 0.0 | 1.0 | 0.00 | 0.00 | 0.00 | 45 | 1045.9 |
| 20260905214054 | 98 | 268 | 0.0 | 1.0 | 0.00 | 0.00 | 0.00 | 45 | 1045.9 |
| 20260905213549 | 99 | 268 | 2.0 | 2.0 | 0.00 | 0.00 | 0.00 | 42 | 1045.8 |
| 20260905213045 | 100 | 293 | 0.0 | 2.0 | 0.00 | 0.00 | 0.00 | 44 | 1045.7 |
| 20260905212545 | 99 | 91 | 0.0 | 0.0 | 0.00 | 0.00 | 0.00 | 44 | 1045.7 |
| 20260905212044 | 98 | 92 | 2.0 | 2.0 | 0.00 | 0.00 | 0.00 | 43 | 1045.8 |
| 20260905211540 | 98 | 269 | 2.0 | 3.0 | 0.00 | 0.00 | 0.00 | 43 | 1045.8 |
| 20260905211036 | 97 | 284 | 2.0 | 3.0 | 0.00 | 0.00 | 0.00 | 43 | 1045.7 |
| 20260905210531 | 97 | 291 | 3.0 | 2.0 | 0.00 | 0.00 | 0.00 | 42 | 1045.9 |
| 20260905210032 | 97 | 286 | 3.0 | 3.0 | 0.00 | 0.00 | 0.00 | 42 | 1046.1 |
| 20260905205531 | 97 | 266 | 2.0 | 4.0 | 0.00 | 0.00 | 0.00 | 44 | 1045.9 |
| 20260905205030 | 97 | 278 | 1.0 | 2.0 | 0.00 | 0.00 | 0.00 | 43 | 1046.0 |
| 20260905204525 | 97 | 309 | 2.0 | 3.0 | 0.00 | 0.00 | 0.00 | 43 | 1046.0 |
| 20260905204020 | 99 | 317 | 2.0 | 3.0 | 0.00 | 0.00 | 0.00 | 41 | 1046.0 |
| 20260905203520 | 99 | 269 | 1.0 | 3.0 | 0.00 | 0.00 | 0.00 | 40 | 1045.9 |
| 20260905203016 | 98 | 301 | 0.0 | 1.0 | 0.00 | 0.00 | 0.00 | 44 | 1046.2 |
| 20260905202511 | 96 | 292 | 0.0 | 0.0 | 0.00 | 0.00 | 0.00 | 46 | 1046.3 |
| 20260905202006 | 96 | 319 | 2.0 | 7.0 | 0.00 | 0.00 | 0.00 | 43 | 1046.3 |
| 20260905201502 | 96 | 185 | 1.0 | 1.0 | 0.00 | 0.00 | 0.00 | 42 | 1046.5 |
| 20260905201001 | 97 | 325 | 4.0 | 4.0 | 0.00 | 0.00 | 0.00 | 41 | 1046.7 |
| 20260905200457 | 96 | 274 | 0.0 | 1.0 | 0.00 | 0.00 | 0.00 | 45 | 1046.6 |
| 20260905195955 | 96 | 259 | 2.0 | 7.0 | 0.00 | 0.00 | 0.00 | 45 | 1046.8 |
| 20260905195450 | 96 | 288 | 2.0 | 4.0 | 0.00 | 0.00 | 0.00 | 44 | 1046.7 |
| 20260905194946 | 96 | 340 | 4.0 | 6.0 | 0.00 | 0.00 | 0.00 | 43 | 1046.6 |
| 20260905194445 | 95 | 326 | 0.0 | 2.0 | 0.00 | 0.00 | 0.00 | 48 | 1046.8 |
| 20260905193940 | 95 | 332 | 2.0 | 2.0 | 0.00 | 0.00 | 0.00 | 43 | 1046.9 |
| 20260905193440 | 96 | 329 | 1.0 | 6.0 | 0.00 | 0.00 | 0.00 | 43 | 1046.7 |
| 20260905192936 | 96 | 327 | 1.0 | 4.0 | 0.00 | 0.00 | 0.00 | 44 | 1046.8 |
| 20260905192431 | 96 | 151 | 1.0 | 1.0 | 0.00 | 0.00 | 0.00 | 42 | 1047.1 |
| 20260905191926 | 95 | 239 | 1.0 | 1.0 | 0.00 | 0.00 | 0.00 | 44 | 1047.1 |
| 20260905191426 | 96 | 328 | 2.0 | 2.0 | 0.00 | 0.00 | 0.00 | 43 | 1047.1 |
| 20260905190925 | 96 | 310 | 1.0 | 2.0 | 0.00 | 0.00 | 0.00 | 45 | 1047.2 |
| 20260905190423 | 95 | 220 | 1.0 | 4.0 | 0.00 | 0.00 | 0.00 | 44 | 1047.3 |
| 20260905185922 | 94 | 290 | 0.0 | 1.0 | 0.00 | 0.00 | 0.00 | 44 | 1047.5 |
| 20260905185417 | 94 | 296 | 3.0 | 6.0 | 0.00 | 0.00 | 0.00 | 41 | 1047.5 |
| 20260905184916 | 93 | 235 | 3.0 | 3.0 | 0.00 | 0.00 | 0.00 | 43 | 1047.3 |
| 20260905184411 | 93 | 190 | 3.0 | 4.0 | 0.00 | 0.00 | 0.00 | 44 | 1047.5 |
| 20260905183909 | 93 | 295 | 4.0 | 6.0 | 0.00 | 0.00 | 0.00 | 49 | 1047.5 |
| 20260905183404 | 94 | 203 | 1.0 | 4.0 | 0.00 | 0.00 | 0.00 | 45 | 1047.6 |
| 20260905182859 | 94 | 12 | 2.0 | 4.0 | 0.00 | 0.00 | 0.00 | 46 | 1047.9 |
| 20260905182358 | 94 | 180 | 1.0 | 3.0 | 0.00 | 0.00 | 0.00 | 44 | 1048.0 |
| 20260905181855 | 93 | 151 | 2.0 | 3.0 | 0.00 | 0.00 | 0.00 | 45 | 1047.8 |
| 20260905181354 | 93 | 138 | 2.0 | 7.0 | 0.00 | 0.00 | 0.00 | 46 | 1047.9 |
| 20260905180853 | 93 | 310 | 5.0 | 6.0 | 0.00 | 0.00 | 0.00 | 47 | 1048.1 |
| 20260905180349 | 93 | 25 | 1.0 | 2.0 | 0.00 | 0.00 | 0.00 | 46 | 1048.0 |
| 20260905175844 | 93 | 259 | 2.0 | 6.0 | 0.00 | 0.00 | 0.00 | 46 | 1048.0 |
| 20260905175343 | 93 | 178 | 1.0 | 4.0 | 0.00 | 0.00 | 0.00 | 47 | 1048.2 |
| 20260905174839 | 92 | 241 | 4.0 | 4.0 | 0.00 | 0.00 | 0.00 | 46 | 1048.1 |
| 20260905174335 | 91 | 143 | 2.0 | 3.0 | 0.00 | 0.00 | 0.00 | 49 | 1048.3 |
| 20260905173830 | 91 | 117 | 3.0 | 6.0 | 0.00 | 0.00 | 0.00 | 47 | 1048.3 |
| 20260905173326 | 92 | 146 | 2.0 | 7.0 | 0.00 | 0.00 | 0.00 | 46 | 1048.3 |
| 20260905172826 | 92 | 120 | 2.0 | 3.0 | 0.00 | 0.00 | 0.00 | 46 | 1048.3 |
| 20260905172324 | 92 | 93 | 1.0 | 3.0 | 0.00 | 0.00 | 0.00 | 47 | 1048.2 |
| 20260905171820 | 92 | 124 | 2.0 | 3.0 | 0.00 | 0.00 | 0.00 | 46 | 1048.4 |
| 20260905171317 | 92 | 285 | 3.0 | 4.0 | 0.00 | 0.00 | 0.00 | 49 | 1048.8 |
| 20260905170813 | 91 | 149 | 1.0 | 1.0 | 0.00 | 0.00 | 0.00 | 48 | 1048.7 |
| 20260905170308 | 90 | 141 | 2.0 | 2.0 | 0.00 | 0.00 | 0.00 | 46 | 1048.7 |
| 20260905165807 | 91 | 155 | 2.0 | 4.0 | 0.00 | 0.00 | 0.00 | 47 | 1048.8 |
| 20260905165306 | 90 | 179 | 2.0 | 3.0 | 0.00 | 0.00 | 0.00 | 48 | 1048.8 |
| 20260905164803 | 90 | 151 | 3.0 | 4.0 | 0.00 | 0.00 | 0.00 | 49 | 1048.8 |
| 20260905164258 | 89 | 110 | 0.0 | 2.0 | 0.00 | 0.00 | 0.00 | 50 | 1048.6 |
| 20260905163754 | 89 | 132 | 3.0 | 4.0 | 0.00 | 0.00 | 0.00 | 49 | 1048.8 |
| 20260905163250 | 89 | 122 | 4.0 | 4.0 | 0.00 | 0.00 | 0.00 | 49 | 1048.6 |
| 20260905162746 | 89 | 125 | 0.0 | 4.0 | 0.00 | 0.00 | 0.00 | 49 | 1048.6 |
| 20260905162245 | 89 | 90 | 2.0 | 6.0 | 0.00 | 0.00 | 0.00 | 51 | 1048.5 |
| 20260905161740 | 89 | 157 | 3.0 | 4.0 | 0.00 | 0.00 | 0.00 | 50 | 1048.6 |
| 20260905161239 | 89 | 192 | 3.0 | 6.0 | 0.00 | 0.00 | 0.00 | 51 | 1048.7 |
| 20260905160737 | 89 | 107 | 2.0 | 4.0 | 0.00 | 0.00 | 0.00 | 51 | 1048.8 |
| 20260905160237 | 88 | 207 | 2.0 | 2.0 | 0.00 | 0.00 | 0.00 | 54 | 1048.9 |
| 20260905155732 | 87 | 106 | 3.0 | 3.0 | 0.00 | 0.00 | 0.00 | 55 | 1048.8 |
| 20260905155231 | 86 | 251 | 2.0 | 6.0 | 0.00 | 0.00 | 0.00 | 55 | 1048.8 |
| 20260905154725 | 86 | 151 | 4.0 | 6.0 | 0.00 | 0.00 | 0.00 | 56 | 1049.0 |
| 20260905154221 | 85 | 87 | 3.0 | 6.0 | 0.00 | 0.00 | 0.00 | 57 | 1049.2 |
| 20260905153716 | 84 | 105 | 3.0 | 4.0 | 0.00 | 0.00 | 0.00 | 59 | 1049.1 |
| 20260905153212 | 86 | 125 | 7.0 | 8.0 | 0.00 | 0.00 | 0.00 | 58 | 1049.4 |
| 20260905152707 | 86 | 190 | 2.0 | 4.0 | 0.00 | 0.00 | 0.00 | 61 | 1049.4 |
| 20260905152201 | 85 | 136 | 2.0 | 3.0 | 0.00 | 0.00 | 0.00 | 59 | 1049.3 |
| 20260905151701 | 86 | 213 | 2.0 | 4.0 | 0.00 | 0.00 | 0.00 | 60 | 1049.4 |
| 20260905151156 | 86 | 141 | 4.0 | 6.0 | 0.00 | 0.00 | 0.00 | 58 | 1049.3 |
| 20260905150652 | 85 | 151 | 1.0 | 3.0 | 0.00 | 0.00 | 0.00 | 60 | 1049.4 |
| 20260905150150 | 85 | 116 | 0.0 | 2.0 | 0.00 | 0.00 | 0.00 | 62 | 1049.3 |
| 20260905145648 | 84 | 164 | 3.0 | 3.0 | 0.00 | 0.00 | 0.00 | 61 | 1049.4 |
| 20260905145143 | 83 | 108 | 2.0 | 2.0 | 0.00 | 0.00 | 0.00 | 64 | 1049.5 |
| 20260905144637 | 84 | 180 | 4.0 | 9.0 | 0.00 | 0.00 | 0.00 | 63 | 1049.3 |
| 20260905144136 | 84 | 140 | 3.0 | 4.0 | 0.00 | 0.00 | 0.00 | 62 | 1049.4 |
| 20260905143631 | 83 | 79 | 2.0 | 3.0 | 0.00 | 0.00 | 0.00 | 62 | 1049.6 |
| 20260905143132 | 83 | 77 | 1.0 | 3.0 | 0.00 | 0.00 | 0.00 | 62 | 1049.6 |
| 20260905142630 | 83 | 87 | 1.0 | 1.0 | 0.00 | 0.00 | 0.00 | 65 | 1049.6 |
| 20260905142130 | 82 | 26 | 1.0 | 2.0 | 0.00 | 0.00 | 0.00 | 66 | 1049.9 |
| 20260905141630 | 81 | 82 | 0.0 | 1.0 | 0.00 | 0.00 | 0.00 | 70 | 1049.9 |
| 20260905141127 | 79 | 82 | 1.0 | 1.0 | 0.00 | 0.00 | 0.00 | 72 | 1049.5 |
| 20260905140622 | 78 | 94 | 2.0 | 2.0 | 0.00 | 0.00 | 0.00 | 71 | 1049.5 |
| 20260905140121 | 77 | 82 | 1.0 | 1.0 | 0.00 | 0.00 | 0.00 | 76 | 1049.6 |
| 20260905135616 | 75 | 86 | 1.0 | 2.0 | 0.00 | 0.00 | 0.00 | 80 | 1049.4 |
| 20260905135111 | 74 | 87 | 1.0 | 1.0 | 0.00 | 0.00 | 0.00 | 82 | 1049.8 |
| 20260905134606 | 74 | 87 | 1.0 | 1.0 | 0.00 | 0.00 | 0.00 | 83 | 1049.8 |
| 20260905134105 | 74 | 84 | 1.0 | 3.0 | 0.00 | 0.00 | 0.00 | 83 | 1049.9 |
| 20260905133601 | 74 | 77 | 1.0 | 2.0 | 0.00 | 0.00 | 0.00 | 84 | 1050.0 |
| 20260905133100 | 73 | 84 | 1.0 | 3.0 | 0.00 | 0.00 | 0.00 | 84 | 1049.9 |
| 20260905132600 | 73 | 83 | 1.0 | 2.0 | 0.00 | 0.00 | 0.00 | 85 | 1050.1 |
| 20260905132055 | 73 | 77 | 1.0 | 2.0 | 0.00 | 0.00 | 0.00 | 86 | 1050.3 |
| 20260905131550 | 73 | 77 | 1.0 | 2.0 | 0.00 | 0.00 | 0.00 | 87 | 1050.2 |
| 20260905131046 | 73 | 86 | 2.0 | 2.0 | 0.00 | 0.00 | 0.00 | 87 | 1050.0 |
| 20260905130544 | 72 | 81 | 1.0 | 2.0 | 0.00 | 0.00 | 0.00 | 88 | 1050.4 |
| 20260905130040 | 72 | 77 | 1.0 | 3.0 | 0.00 | 0.00 | 0.00 | 88 | 1050.1 |
| 20260905125539 | 72 | 357 | 0.0 | 1.0 | 0.00 | 0.00 | 0.00 | 88 | 1050.6 |
| 20260905125035 | 72 | 86 | 1.0 | 1.0 | 0.00 | 0.00 | 0.00 | 88 | 1050.0 |
| 20260905124531 | 72 | 34 | 0.0 | 1.0 | 0.00 | 0.00 | 0.00 | 87 | 1050.2 |
| 20260905124027 | 72 | 19 | 1.0 | 2.0 | 0.00 | 0.00 | 0.00 | 88 | 1050.3 |
| 20260905123523 | 72 | 84 | 0.0 | 1.0 | 0.00 | 0.00 | 0.00 | 89 | 1050.4 |
| 20260905123020 | 72 | 85 | 0.0 | 1.0 | 0.00 | 0.00 | 0.00 | 90 | 1049.6 |
| 20260905122519 | 72 | 86 | 0.0 | 1.0 | 0.00 | 0.00 | 0.00 | 89 | 1049.3 |
| 20260905122014 | 73 | 86 | 2.0 | 2.0 | 0.00 | 0.00 | 0.00 | 88 | 1049.2 |
| 20260905121514 | 73 | 42 | 1.0 | 1.0 | 0.00 | 0.00 | 0.00 | 87 | 1049.5 |
| 20260905121009 | 73 | 41 | 0.0 | 1.0 | 0.00 | 0.00 | 0.00 | 86 | 1049.6 |
| 20260905120508 | 73 | 61 | 1.0 | 1.0 | 0.00 | 0.00 | 0.00 | 87 | 1049.6 |
| 20260905120004 | 73 | 81 | 0.0 | 1.0 | 0.00 | 0.00 | 0.00 | 86 | 1049.3 |
| 20260905115502 | 73 | 63 | 0.0 | 0.0 | 0.00 | 0.00 | 0.00 | 86 | 1049.7 |
| 20260905114958 | 73 | 65 | 0.0 | 1.0 | 0.00 | 0.00 | 0.00 | 85 | 1049.6 |
| 20260905114457 | 73 | 100 | 0.0 | 1.0 | 0.00 | 0.00 | 0.00 | 85 | 1049.8 |
| 20260905113956 | 73 | 93 | 2.0 | 2.0 | 0.00 | 0.00 | 0.00 | 84 | 1049.5 |
| 20260905113452 | 73 | 22 | 0.0 | 2.0 | 0.00 | 0.00 | 0.00 | 84 | 1049.6 |
| 20260905112947 | 73 | 74 | 1.0 | 4.0 | 0.00 | 0.00 | 0.00 | 84 | 1049.0 |
| 20260905112442 | 74 | 74 | 1.0 | 2.0 | 0.00 | 0.00 | 0.00 | 83 | 1048.9 |
| 20260905111938 | 74 | 353 | 1.0 | 2.0 | 0.00 | 0.00 | 0.00 | 82 | 1048.8 |
| 20260905111438 | 74 | 12 | 1.0 | 4.0 | 0.00 | 0.00 | 0.00 | 82 | 1048.7 |
| 20260905110932 | 74 | 30 | 2.0 | 4.0 | 0.00 | 0.00 | 0.00 | 84 | 1048.9 |
| 20260905110431 | 74 | 294 | 4.0 | 6.0 | 0.00 | 0.00 | 0.00 | 91 | 1048.9 |
| 20260905105931 | 74 | 75 | 0.0 | 1.0 | 0.00 | 0.00 | 0.00 | 93 | 1048.5 |
| 20260905105426 | 74 | 68 | 0.0 | 2.0 | 0.00 | 0.00 | 0.00 | 94 | 1048.4 |
| 20260905104926 | 74 | 338 | 0.0 | 0.0 | 0.00 | 0.00 | 0.00 | 94 | 1048.5 |
| 20260905104422 | 74 | 338 | 0.0 | 0.0 | 0.00 | 0.00 | 0.00 | 94 | 1048.2 |
| 20260905103921 | 73 | 338 | 1.0 | 1.0 | 0.00 | 0.00 | 0.00 | 94 | 1048.2 |
| 20260905103417 | 73 | 340 | 1.0 | 2.0 | 0.00 | 0.00 | 0.00 | 94 | 1048.3 |
| 20260905102913 | 73 | 316 | 1.0 | 3.0 | 0.00 | 0.00 | 0.00 | 94 | 1048.0 |
| 20260905102409 | 73 | 337 | 1.0 | 1.0 | 0.00 | 0.00 | 0.00 | 94 | 1048.0 |
| 20260905101909 | 73 | 337 | 0.0 | 0.0 | 0.00 | 0.00 | 0.00 | 94 | 1047.9 |
| 20260905101407 | 73 | 337 | 0.0 | 0.0 | 0.00 | 0.00 | 0.00 | 94 | 1047.8 |
| 20260905100903 | 73 | 337 | 0.0 | 0.0 | 0.00 | 0.00 | 0.00 | 94 | 1047.8 |
| 20260905100359 | 73 | 337 | 0.0 | 0.0 | 0.00 | 0.00 | 0.00 | 94 | 1048.0 |
| 20260905095857 | 73 | 337 | 0.0 | 0.0 | 0.00 | 0.00 | 0.00 | 94 | 1048.1 |
| 20260905095353 | 73 | 337 | 0.0 | 0.0 | 0.00 | 0.00 | 0.00 | 94 | 1047.8 |
| 20260905094853 | 73 | 337 | 0.0 | 0.0 | 0.00 | 0.00 | 0.00 | 93 | 1047.7 |
| 20260905094349 | 73 | 337 | 0.0 | 0.0 | 0.00 | 0.00 | 0.00 | 93 | 1048.0 |
| 20260905093847 | 73 | 337 | 0.0 | 0.0 | 0.00 | 0.00 | 0.00 | 93 | 1047.6 |
| 20260905093343 | 74 | 337 | 0.0 | 0.0 | 0.00 | 0.00 | 0.00 | 92 | 1047.8 |
| 20260905092839 | 74 | 337 | 0.0 | 0.0 | 0.00 | 0.00 | 0.00 | 92 | 1047.8 |
| 20260905092338 | 74 | 337 | 0.0 | 0.0 | 0.00 | 0.00 | 0.00 | 92 | 1047.6 |
| 20260905091834 | 74 | 337 | 0.0 | 0.0 | 0.00 | 0.00 | 0.00 | 91 | 1047.6 |
| 20260905091333 | 74 | 337 | 0.0 | 0.0 | 0.00 | 0.00 | 0.00 | 91 | 1047.6 |
| 20260905090832 | 74 | 337 | 0.0 | 0.0 | 0.00 | 0.00 | 0.00 | 91 | 1047.6 |
| 20260905090328 | 75 | 337 | 0.0 | 0.0 | 0.00 | 0.00 | 0.00 | 90 | 1047.5 |
| 20260905085827 | 75 | 337 | 0.0 | 0.0 | 0.00 | 0.00 | 0.00 | 89 | 1047.9 |
| 20260905085322 | 76 | 337 | 0.0 | 0.0 | 0.00 | 0.00 | 0.00 | 90 | 1047.8 |
| 20260905084818 | 75 | 337 | 0.0 | 0.0 | 0.00 | 0.00 | 0.00 | 90 | 1047.6 |
| 20260905084317 | 75 | 337 | 0.0 | 0.0 | 0.00 | 0.00 | 0.00 | 91 | 1047.7 |
| 20260905083812 | 75 | 337 | 0.0 | 0.0 | 0.00 | 0.00 | 0.00 | 91 | 1047.5 |
| 20260905083308 | 75 | 337 | 0.0 | 0.0 | 0.00 | 0.00 | 0.00 | 91 | 1047.5 |
| 20260905082803 | 75 | 337 | 0.0 | 0.0 | 0.00 | 0.00 | 0.00 | 92 | 1047.3 |
| 20260905082259 | 75 | 337 | 0.0 | 0.0 | 0.00 | 0.00 | 0.00 | 92 | 1047.5 |
| 20260905081759 | 75 | 337 | 0.0 | 0.0 | 0.00 | 0.00 | 0.00 | 93 | 1047.3 |
| 20260905081255 | 74 | 337 | 0.0 | 0.0 | 0.00 | 0.00 | 0.00 | 93 | 1047.5 |
| 20260905080754 | 74 | 337 | 0.0 | 0.0 | 0.00 | 0.00 | 0.00 | 92 | 1047.6 |
| 20260905080254 | 74 | 337 | 0.0 | 0.0 | 0.00 | 0.00 | 0.00 | 92 | 1047.2 |
| 20260905075753 | 74 | 337 | 0.0 | 0.0 | 0.00 | 0.00 | 0.00 | 92 | 1047.6 |
| 20260905075253 | 74 | 337 | 0.0 | 0.0 | 0.00 | 0.00 | 0.00 | 91 | 1047.6 |
| 20260905074752 | 74 | 337 | 0.0 | 0.0 | 0.00 | 0.00 | 0.00 | 91 | 1047.9 |
| 20260905074248 | 74 | 337 | 0.0 | 0.0 | 0.00 | 0.00 | 0.00 | 92 | 1047.6 |
| 20260905073743 | 74 | 337 | 0.0 | 0.0 | 0.00 | 0.00 | 0.00 | 92 | 1047.6 |
| 20260905073238 | 74 | 337 | 0.0 | 0.0 | 0.00 | 0.00 | 0.00 | 92 | 1047.8 |
| 20260905072737 | 74 | 337 | 0.0 | 0.0 | 0.00 | 0.00 | 0.00 | 92 | 1047.6 |
| 20260905072233 | 74 | 337 | 0.0 | 0.0 | 0.00 | 0.00 | 0.00 | 91 | 1048.0 |
| 20260905071730 | 74 | 337 | 0.0 | 0.0 | 0.00 | 0.00 | 0.00 | 91 | 1047.9 |
| 20260905071225 | 74 | 337 | 0.0 | 0.0 | 0.00 | 0.00 | 0.00 | 91 | 1048.0 |
| 20260905070720 | 74 | 337 | 0.0 | 0.0 | 0.00 | 0.00 | 0.00 | 91 | 1047.9 |
| 20260905070216 | 75 | 337 | 0.0 | 0.0 | 0.00 | 0.00 | 0.00 | 89 | 1048.2 |
| 20260905065714 | 75 | 337 | 0.0 | 0.0 | 0.00 | 0.00 | 0.00 | 89 | 1048.1 |
| 20260905065209 | 75 | 337 | 0.0 | 0.0 | 0.00 | 0.00 | 0.00 | 88 | 1048.3 |
| 20260905064704 | 76 | 337 | 0.0 | 0.0 | 0.00 | 0.00 | 0.00 | 87 | 1048.1 |
| 20260905064200 | 76 | 337 | 0.0 | 0.0 | 0.00 | 0.00 | 0.00 | 87 | 1048.2 |
| 20260905063658 | 76 | 337 | 0.0 | 0.0 | 0.00 | 0.00 | 0.00 | 86 | 1048.3 |
| 20260905063155 | 76 | 337 | 0.0 | 0.0 | 0.00 | 0.00 | 0.00 | 87 | 1048.5 |
| 20260905062650 | 76 | 338 | 0.0 | 0.0 | 0.00 | 0.00 | 0.00 | 87 | 1048.4 |
| 20260905062149 | 75 | 310 | 0.0 | 0.0 | 0.00 | 0.00 | 0.00 | 89 | 1048.7 |
| 20260905061644 | 74 | 310 | 0.0 | 0.0 | 0.00 | 0.00 | 0.00 | 90 | 1048.7 |
| 20260905061144 | 74 | 310 | 0.0 | 0.0 | 0.00 | 0.00 | 0.00 | 91 | 1048.4 |
| 20260905060639 | 75 | 310 | 0.0 | 0.0 | 0.00 | 0.00 | 0.00 | 90 | 1048.6 |
| 20260905060136 | 75 | 310 | 0.0 | 0.0 | 0.00 | 0.00 | 0.00 | 90 | 1048.9 |
| 20260905055634 | 75 | 310 | 0.0 | 0.0 | 0.00 | 0.00 | 0.00 | 90 | 1048.7 |
| 20260905055130 | 75 | 310 | 0.0 | 0.0 | 0.00 | 0.00 | 0.00 | 91 | 1048.8 |
| 20260905054625 | 75 | 310 | 0.0 | 0.0 | 0.00 | 0.00 | 0.00 | 91 | 1048.8 |
| 20260905054121 | 75 | 310 | 0.0 | 0.0 | 0.00 | 0.00 | 0.00 | 90 | 1048.7 |
| 20260905053620 | 75 | 310 | 0.0 | 0.0 | 0.00 | 0.00 | 0.00 | 90 | 1048.7 |
| 20260905053116 | 75 | 310 | 0.0 | 0.0 | 0.00 | 0.00 | 0.00 | 89 | 1048.9 |
| 20260905052615 | 75 | 310 | 0.0 | 0.0 | 0.00 | 0.00 | 0.00 | 90 | 1048.8 |
| 20260905052109 | 75 | 310 | 0.0 | 0.0 | 0.00 | 0.00 | 0.00 | 90 | 1049.0 |
| 20260905051605 | 75 | 310 | 0.0 | 1.0 | 0.00 | 0.00 | 0.00 | 90 | 1048.8 |
| 20260905051102 | 75 | 310 | 0.0 | 0.0 | 0.00 | 0.00 | 0.00 | 90 | 1049.0 |
| 20260905050558 | 76 | 310 | 0.0 | 0.0 | 0.00 | 0.00 | 0.00 | 89 | 1048.9 |
| 20260905050055 | 76 | 310 | 0.0 | 0.0 | 0.00 | 0.00 | 0.00 | 89 | 1048.8 |
| 20260905045554 | 76 | 310 | 0.0 | 0.0 | 0.00 | 0.00 | 0.00 | 88 | 1049.1 |
| 20260905045050 | 76 | 310 | 0.0 | 0.0 | 0.00 | 0.00 | 0.00 | 88 | 1049.0 |
| 20260905044549 | 76 | 310 | 0.0 | 0.0 | 0.00 | 0.00 | 0.00 | 88 | 1049.0 |
| 20260905044044 | 76 | 310 | 0.0 | 0.0 | 0.00 | 0.00 | 0.00 | 88 | 1049.1 |
| 20260905043543 | 76 | 310 | 0.0 | 0.0 | 0.00 | 0.00 | 0.00 | 88 | 1049.1 |
| 20260905043039 | 77 | 310 | 0.0 | 0.0 | 0.00 | 0.00 | 0.00 | 87 | 1049.0 |
| 20260905042537 | 77 | 310 | 0.0 | 0.0 | 0.00 | 0.00 | 0.00 | 86 | 1049.2 |
| 20260905042033 | 77 | 310 | 0.0 | 0.0 | 0.00 | 0.00 | 0.00 | 85 | 1048.9 |
| 20260905041528 | 78 | 310 | 0.0 | 0.0 | 0.00 | 0.00 | 0.00 | 85 | 1048.9 |
| 20260905041024 | 77 | 310 | 1.0 | 1.0 | 0.00 | 0.00 | 0.00 | 85 | 1049.0 |
| 20260905040523 | 76 | 310 | 0.0 | 0.0 | 0.00 | 0.00 | 0.00 | 87 | 1048.7 |
| 20260905040022 | 76 | 310 | 0.0 | 0.0 | 0.00 | 0.00 | 0.00 | 89 | 1048.8 |
| 20260905035517 | 76 | 310 | 0.0 | 0.0 | 0.00 | 0.00 | 0.00 | 89 | 1048.9 |
| 20260905035014 | 76 | 310 | 1.0 | 1.0 | 0.00 | 0.00 | 0.00 | 89 | 1049.2 |
| 20260905034509 | 76 | 310 | 0.0 | 0.0 | 0.00 | 0.00 | 0.00 | 89 | 1049.3 |
| 20260905034009 | 76 | 310 | 0.0 | 0.0 | 0.00 | 0.00 | 0.00 | 89 | 1049.3 |
| 20260905033503 | 76 | 310 | 0.0 | 0.0 | 0.00 | 0.00 | 0.00 | 89 | 1049.2 |
| 20260905032958 | 77 | 310 | 0.0 | 0.0 | 0.00 | 0.00 | 0.00 | 88 | 1049.4 |
| 20260905032453 | 77 | 310 | 0.0 | 0.0 | 0.00 | 0.00 | 0.00 | 87 | 1049.2 |
| 20260905031948 | 77 | 310 | 0.0 | 0.0 | 0.00 | 0.00 | 0.00 | 88 | 1049.1 |
| 20260905031444 | 77 | 310 | 0.0 | 0.0 | 0.00 | 0.00 | 0.00 | 88 | 1049.0 |
| 20260905030939 | 77 | 310 | 0.0 | 0.0 | 0.00 | 0.00 | 0.00 | 88 | 1048.9 |
| 20260905030434 | 77 | 310 | 0.0 | 0.0 | 0.00 | 0.00 | 0.00 | 87 | 1048.9 |
| 20260905025933 | 77 | 310 | 0.0 | 0.0 | 0.00 | 0.00 | 0.00 | 87 | 1049.0 |
| 20260905025428 | 78 | 310 | 0.0 | 0.0 | 0.00 | 0.00 | 0.00 | 85 | 1049.0 |
| 20260905024926 | 78 | 310 | 0.0 | 0.0 | 0.00 | 0.00 | 0.00 | 85 | 1049.2 |
| 20260905024425 | 78 | 310 | 0.0 | 0.0 | 0.00 | 0.00 | 0.00 | 85 | 1049.1 |
| 20260905023921 | 78 | 310 | 0.0 | 0.0 | 0.00 | 0.00 | 0.00 | 84 | 1048.6 |
| 20260905023416 | 78 | 310 | 0.0 | 0.0 | 0.00 | 0.00 | 0.00 | 85 | 1048.8 |
| 20260905022915 | 78 | 310 | 0.0 | 0.0 | 0.00 | 0.00 | 0.00 | 86 | 1048.8 |
| 20260905022410 | 77 | 310 | 0.0 | 0.0 | 0.00 | 0.00 | 0.00 | 86 | 1048.8 |
| 20260905021906 | 78 | 310 | 0.0 | 1.0 | 0.00 | 0.00 | 0.00 | 87 | 1048.9 |
| 20260905021400 | 78 | 310 | 0.0 | 0.0 | 0.00 | 0.00 | 0.00 | 87 | 1048.8 |
| 20260905020855 | 78 | 310 | 0.0 | 0.0 | 0.00 | 0.00 | 0.00 | 86 | 1048.7 |
| 20260905020349 | 78 | 310 | 0.0 | 0.0 | 0.00 | 0.00 | 0.00 | 86 | 1048.4 |
| 20260905015850 | 78 | 310 | 0.0 | 0.0 | 0.00 | 0.00 | 0.00 | 86 | 1048.6 |
| 20260905015348 | 78 | 310 | 0.0 | 0.0 | 0.00 | 0.00 | 0.00 | 85 | 1048.6 |
| 20260905014848 | 78 | 310 | 0.0 | 0.0 | 0.00 | 0.00 | 0.00 | 84 | 1048.4 |
| 20260905014343 | 79 | 310 | 0.0 | 0.0 | 0.00 | 0.00 | 0.00 | 85 | 1048.5 |
| 20260905013844 | 79 | 310 | 0.0 | 0.0 | 0.00 | 0.00 | 0.00 | 84 | 1048.5 |
| 20260905013340 | 79 | 310 | 0.0 | 0.0 | 0.00 | 0.00 | 0.00 | 84 | 1048.6 |